Zurück zum Katalog

STARLINK-31928

AktivKommunikationVLEO
NORAD 59897·PAYLOAD·🇺🇸 United States

Gestartet May 28, 2024 von Cape Canaveral Space Force Station

Loading…

Nächste Überflüge (nächste 24 Stunden)

TLE

AktuellSource: CelesTrak SupGP

Epoche: Sep 14, 2026, 21:27 UTC

1 59897C 24100N   26257.89423611 -.00046959  00000+0 -17013-2 0  2576
2 59897  43.0021 137.1645 0001365 267.6233 318.4733 15.27593739    12

Verfolge STARLINK-31928 in Echtzeit mit AllMySat

Download on the App Store